Temp
64 64 64 65 65 65 65 65 65 64 64 64 65 64 64 65 68 68 63 67 67 70 68 65 67 66 64 61 60 55 48 44 46 48 49 52 52 52 51 50 48 49 48 51 53
62 63 63 64 64 64 64 65 64 64 64 64 64 64 65 64 67 65 70 72 71 71 66 65 63 64 59 58 57 52 46 48 51 51 51 54 53 54 50 46 45 46 49 51 50
60 61 62 63 63 64 64 64 64 63 63 63 63 64 64 62 64 64 72 72 72 69 64 63 62 61 56 56 54 50 49 52 53 54 55 53 51 53 49 46 46 45 46 47 46
59 59 61 61 62 63 64 64 64 63 63 63 63 64 63 64 55 66 70 70 70 67 66 64 63 56 53 52 56 49 54 54 56 55 54 52 53 50 50 51 52 51 50 46 45
59 58 60 60 61 62 63 64 64 63 63 63 64 64 63 60 63 67 70 69 67 67 64 61 59 54 50 50 55 49 51 54 55 55 53 53 53 52 50 46 51 50 48 45 44
59 58 59 60 60 62 62 63 63 63 63 63 64 63 61 56 65 67 66 66 65 65 61 61 56 56 52 51 49 51 51 53 54 54 53 52 48 49 47 45 46 48 44 44 45
60 58 58 59 60 61 62 62 63 63 63 64 65 66 61 63 65 65 67 62 62 62 60 58 58 55 53 51 54 51 49 51 51 52 51 51 47 49 48 46 45 44 43 44 44
60 59 58 59 60 60 61 62 62 62 63 64 65 61 58 64 62 65 64 62 64 64 62 60 58 57 52 52 52 47 44 42 49 49 49 51 43 51 48 46 43 42 40 43 44
59 59 59 59 59 60 61 61 62 63 65 65 59 59 56 65 61 63 61 61 61 61 61 66 58 51 51 45 43 43 38 38 46 50 47 47 44 49 47 46 43 42 41 42 41
59 59 59 59 59 60 60 62 63 63 64 65 67 56 58 58 60 61 60 61 58 57 57 55 50 47 44 44 39 39 38 40 40 46 43 43 45 48 45 45 44 42 40 41 40
59 59 59 59 60 61 57 60 61 58 59 58 56 55 57 59 60 59 60 59 57 54 49 49 47 44 47 46 45 42 40 39 41 47 43 42 45 51 47 44 41 38 39 40 40
59 59 59 60 60 60 55 54 48 50 51 52 53 55 58 57 54 57 61 55 53 49 49 47 45 49 48 46 45 41 39 38 43 43 43 42 41 46 48 45 46 44 41 41 39
59 58 58 59 59 56 51 48 52 50 46 52 54 54 55 58 54 55 59 54 50 47 47 45 47 49 48 43 42 39 38 38 40 40 40 37 33 40 44 42 43 47 45 43 42
59 58 58 58 56 50 50 51 52 50 42 50 50 54 55 54 50 56 56 54 48 48 46 45 47 47 43 43 43 37 42 40 39 35 30 38 30 36 40 43 39 41 41 42 40
58 58 58 58 48 51 51 52 50 51 27 50 49 57 54 51 51 51 54 52 47 47 47 46 44 42 42 44 45 42 41 38 36 33 28 30 27 31 34 38 44 37 39 41 40
60 58 57 54 49 49 51 48 50 42 31 47 50 49 48 48 49 50 50 53 49 46 43 44 44 46 45 42 42 43 38 36 31 29 22 30 30 28 32 38 40 36 39 38 37
59 58 54 53 50 50 49 49 39 31 48 46 45 46 45 45 46 47 46 43 43 39 37 39 41 41 43 39 39 39 36 28 24 20 26 29 26 39 43 44 41 38 37 37 38
58 57 54 53 51 50 48 44 29 39 43 47 46 44 44 46 45 44 41 40 43 41 35 36 39 39 42 42 39 35 37 29 19 19 30 27 26 35 40 38 37 39 39 38 35
57 52 51 51 51 50 44 31 36 40 47 46 44 39 40 44 44 40 38 38 44 45 43 33 34 37 38 38 40 35 32 35 28 6 12 28 30 37 36 35 33 35 35 34 35
52 51 52 53 52 48 38 41 40 47 48 45 44 45 38 41 40 39 38 42 44 45 44 43 37 34 35 36 36 35 38 29 24 15 11 22 26 34 37 36 30 30 32 34 35
51 45 49 54 53 45 36 37 42 49 50 47 42 41 41 41 41 37 40 43 44 41 42 40 39 33 34 32 33 31 31 31 30 25 18 14 31 36 39 39 31 33 34 34 34
49 40 46 54 42 38 38 38 45 44 52 47 45 44 44 43 39 38 39 48 47 43 40 39 35 28 30 30 33 34 36 36 28 22 19 21 33 38 38 39 35 35 35 34 34
44 46 45 48 35 37 34 38 45 42 47 47 44 46 46 44 41 40 47 46 45 44 40 40 32 22 27 28 30 29 32 34 31 27 28 22 31 36 37 33 35 34 33 34 33
44 37 42 43 44 40 38 38 38 44 47 46 44 44 41 41 47 44 39 42 40 42 46 47 34 33 35 36 30 27 29 32 34 27 32 32 35 43 45 41 33 32 32 33 33
44 40 43 36 38 41 39 39 41 38 43 46 44 46 45 42 43 42 46 36 35 41 38 40 36 32 40 42 33 34 37 30 29 34 32 37 37 43 48 49 45 43 34 33 33
45 43 41 40 39 40 41 38 38 41 40 40 42 44 47 44 46 44 45 40 40 30 33 33 32 31 32 35 33 32 37 37 35 36 36 37 36 48 52 51 48 38 34 33 32
51 50 45 43 41 38 37 39 40 43 44 47 45 44 42 46 53 54 46 47 44 38 29 28 27 23 30 32 29 26 34 36 39 41 39 32 39 47 45 40 36 33 34 33 31
MSLP
1019.52 1019.10 1018.65 1018.14 1017.68 1017.28 1016.85 1016.37 1015.92 1015.52 1015.19 1014.82 1014.57 1014.32 1014.16 1013.89 1013.60 1013.58 1014.34 1014.58 1014.42 1013.97 1013.78 1013.42 1013.14 1013.31 1013.33 1013.88 1014.27 1014.81 1015.76 1016.17 1015.70 1015.60 1015.22 1015.31 1015.86 1016.65 1017.48 1018.33 1019.36 1019.88 1020.10 1020.14 1021.10
1019.78 1019.35 1018.93 1018.40 1017.82 1017.41 1016.98 1016.50 1016.00 1015.44 1015.10 1014.79 1014.63 1014.29 1014.15 1014.04 1013.88 1014.11 1014.29 1014.24 1014.11 1013.94 1013.81 1013.75 1013.73 1013.65 1013.99 1014.21 1014.63 1015.06 1015.82 1015.56 1015.21 1015.11 1015.14 1015.37 1015.82 1016.59 1017.65 1018.91 1020.14 1020.67 1020.87 1021.14 1021.66
1020.07 1019.60 1019.11 1018.51 1017.92 1017.36 1016.96 1016.51 1016.14 1015.59 1015.10 1014.72 1014.60 1014.34 1014.10 1014.02 1014.02 1014.10 1013.97 1013.89 1013.77 1013.80 1013.88 1013.90 1013.88 1013.92 1014.28 1014.43 1014.82 1015.00 1015.26 1015.24 1015.15 1015.12 1015.19 1015.61 1016.21 1016.82 1017.79 1019.00 1019.10 1019.67 1020.86 1021.51 1021.92
1020.22 1019.80 1019.18 1018.54 1017.98 1017.34 1016.73 1016.39 1016.11 1015.62 1015.19 1014.73 1014.46 1014.32 1014.09 1013.96 1014.26 1013.69 1013.73 1013.67 1013.51 1013.53 1013.68 1013.80 1013.92 1014.50 1014.84 1015.09 1014.94 1015.07 1015.06 1015.10 1015.15 1015.18 1015.41 1015.71 1016.08 1016.91 1017.54 1017.57 1017.77 1018.94 1020.01 1021.10 1021.81
1020.44 1019.90 1019.22 1018.56 1017.94 1017.34 1016.70 1016.21 1015.86 1015.48 1015.14 1014.76 1014.38 1014.33 1014.15 1014.22 1013.92 1013.67 1013.57 1013.54 1013.48 1013.55 1014.15 1014.31 1014.46 1015.07 1015.27 1015.34 1015.19 1015.21 1015.20 1015.10 1015.04 1015.23 1015.52 1015.60 1015.96 1016.78 1017.17 1017.63 1018.09 1019.34 1020.51 1021.10 1021.63
1020.49 1020.09 1019.41 1018.63 1017.99 1017.30 1016.65 1016.02 1015.64 1015.22 1014.96 1014.78 1014.32 1014.37 1014.39 1014.51 1013.78 1013.72 1013.68 1013.68 1013.97 1014.05 1014.50 1014.68 1014.98 1015.19 1015.44 1015.58 1015.72 1015.62 1015.55 1015.47 1015.29 1015.38 1015.53 1015.95 1016.31 1016.83 1017.52 1018.53 1019.33 1020.00 1020.72 1021.28 1021.44
1020.37 1020.03 1019.56 1018.84 1018.04 1017.29 1016.46 1015.75 1015.38 1015.00 1014.70 1014.68 1014.40 1014.19 1014.51 1014.27 1013.95 1013.91 1013.74 1014.10 1014.31 1014.42 1014.73 1015.05 1015.13 1015.46 1015.68 1015.86 1015.95 1016.02 1016.08 1015.64 1015.40 1015.49 1015.65 1015.97 1016.71 1016.57 1017.27 1018.68 1019.60 1020.33 1020.78 1021.22 1021.37
1020.35 1019.97 1019.53 1018.85 1018.18 1017.37 1016.37 1015.42 1015.03 1014.66 1014.44 1014.74 1014.53 1014.29 1014.25 1013.99 1014.06 1014.09 1014.12 1014.37 1014.45 1014.55 1014.87 1015.22 1015.27 1015.65 1015.92 1016.00 1016.40 1016.77 1016.93 1016.80 1015.77 1015.87 1015.86 1016.21 1015.80 1015.96 1017.02 1018.33 1019.47 1020.05 1020.54 1020.73 1021.08
1020.34 1019.92 1019.40 1018.76 1018.11 1017.42 1016.36 1015.23 1014.59 1014.37 1014.27 1014.66 1014.81 1014.46 1014.42 1014.13 1014.18 1014.14 1014.33 1014.54 1014.72 1014.94 1015.19 1015.34 1015.56 1016.37 1016.59 1016.81 1017.45 1017.93 1017.98 1017.77 1016.84 1016.12 1016.42 1016.73 1016.12 1016.20 1017.16 1018.09 1019.19 1019.86 1020.37 1020.88 1021.11
1020.33 1019.94 1019.39 1018.74 1018.13 1017.43 1016.22 1014.76 1014.23 1014.37 1014.44 1014.46 1014.55 1014.97 1014.61 1014.23 1014.22 1014.22 1014.42 1014.63 1014.83 1015.15 1015.53 1015.74 1016.42 1016.84 1017.44 1017.46 1018.11 1018.31 1018.40 1018.00 1017.71 1016.89 1017.01 1017.08 1016.36 1016.44 1017.10 1017.82 1018.34 1019.01 1019.97 1020.62 1020.84
1020.07 1019.72 1019.32 1018.82 1018.15 1017.44 1016.58 1014.95 1015.03 1015.27 1015.11 1014.60 1014.51 1014.54 1014.41 1014.35 1014.44 1014.58 1014.50 1014.66 1014.89 1015.21 1015.79 1016.23 1016.94 1017.11 1016.94 1016.99 1017.31 1017.95 1018.40 1018.57 1017.57 1017.22 1017.49 1016.92 1016.87 1015.69 1016.35 1017.06 1017.73 1018.42 1019.06 1019.48 1019.94
1019.84 1019.64 1019.36 1018.86 1018.21 1017.41 1017.24 1017.44 1018.03 1018.23 1016.60 1014.91 1014.65 1014.63 1014.42 1014.39 1014.55 1014.59 1014.59 1014.99 1015.16 1015.54 1016.00 1016.74 1016.58 1016.19 1016.54 1016.96 1017.31 1017.99 1018.49 1018.18 1017.62 1017.47 1017.85 1016.94 1016.73 1015.98 1015.19 1015.26 1015.51 1016.29 1017.47 1018.43 1019.55
1019.74 1019.56 1019.33 1018.89 1018.25 1017.74 1018.11 1018.45 1018.50 1018.41 1017.78 1015.05 1014.52 1014.34 1014.39 1014.54 1014.36 1014.30 1014.54 1014.72 1015.10 1015.70 1016.09 1016.37 1015.95 1016.09 1016.63 1017.19 1017.65 1017.98 1018.45 1018.22 1018.35 1018.19 1017.98 1017.63 1016.39 1015.50 1013.93 1014.06 1014.42 1015.06 1016.07 1017.11 1017.91
1019.54 1019.50 1019.21 1018.73 1018.50 1018.82 1018.78 1018.81 1018.61 1018.66 1018.05 1015.29 1014.67 1014.00 1014.32 1014.39 1014.53 1014.31 1014.46 1014.66 1015.14 1015.49 1016.27 1016.34 1015.98 1016.32 1016.90 1017.35 1017.50 1017.99 1017.57 1018.25 1018.94 1019.63 1019.44 1018.77 1016.63 1015.47 1014.43 1014.07 1014.02 1014.43 1015.30 1015.90 1017.19
1019.44 1019.43 1019.15 1018.91 1019.66 1019.37 1019.25 1018.86 1018.74 1018.91 1017.49 1014.93 1014.58 1014.56 1014.49 1014.81 1014.82 1014.69 1014.68 1014.64 1015.06 1015.54 1016.26 1015.64 1016.11 1016.64 1017.08 1016.88 1017.17 1017.47 1017.85 1018.63 1019.43 1020.09 1020.09 1019.25 1019.10 1015.03 1014.98 1014.51 1013.20 1013.65 1014.41 1015.41 1016.46
1019.12 1019.24 1019.23 1019.22 1019.34 1019.34 1019.25 1019.14 1019.05 1019.01 1016.82 1014.51 1014.07 1014.27 1014.73 1014.75 1014.78 1014.99 1014.98 1014.99 1015.45 1015.82 1016.14 1016.02 1016.13 1016.34 1016.41 1016.80 1017.23 1017.81 1018.41 1019.11 1020.33 1020.89 1020.52 1018.31 1018.14 1015.29 1014.34 1012.89 1012.63 1012.68 1013.43 1014.74 1015.79
1018.69 1018.84 1019.35 1019.20 1019.15 1019.11 1019.30 1019.54 1019.63 1017.98 1015.55 1014.44 1014.19 1014.34 1014.53 1014.84 1014.98 1015.08 1015.28 1015.52 1015.66 1016.29 1016.43 1016.35 1016.20 1016.25 1016.65 1017.44 1017.81 1018.20 1019.45 1020.66 1021.23 1021.67 1019.67 1018.50 1018.17 1013.48 1012.63 1011.75 1011.82 1012.42 1013.57 1014.43 1015.25
1018.31 1018.59 1018.69 1018.98 1019.04 1019.13 1019.33 1020.07 1018.89 1016.23 1014.87 1013.79 1013.93 1014.41 1014.59 1014.56 1014.80 1015.12 1015.48 1015.72 1015.31 1015.42 1016.35 1016.47 1016.04 1016.37 1016.54 1016.74 1017.13 1018.38 1019.15 1020.75 1021.44 1021.82 1019.92 1018.96 1016.05 1012.17 1011.30 1011.46 1012.03 1012.67 1013.11 1014.44 1015.38
1018.08 1018.48 1018.58 1018.38 1018.90 1019.32 1019.73 1019.08 1016.09 1015.68 1014.40 1013.87 1014.17 1014.48 1014.42 1014.17 1014.58 1015.19 1015.40 1014.98 1014.29 1014.39 1015.12 1015.84 1016.01 1016.26 1016.74 1016.91 1017.39 1018.80 1019.50 1019.87 1020.86 1022.80 1021.23 1017.01 1013.65 1011.71 1011.11 1011.37 1012.05 1012.58 1013.15 1013.97 1014.80
1018.16 1018.14 1017.42 1017.55 1018.46 1019.32 1019.74 1016.67 1015.35 1014.10 1013.56 1013.66 1013.73 1013.46 1013.96 1014.21 1014.93 1015.17 1014.79 1013.74 1013.70 1013.24 1013.06 1014.32 1015.88 1016.36 1017.21 1017.58 1018.22 1018.32 1018.95 1020.19 1021.53 1022.38 1020.70 1015.86 1013.32 1011.13 1010.71 1011.04 1011.88 1013.01 1013.31 1013.80 1014.70
1017.88 1017.94 1016.62 1016.62 1017.83 1018.66 1017.08 1015.84 1014.67 1013.58 1013.33 1013.33 1012.98 1013.18 1013.34 1013.56 1013.85 1014.22 1013.58 1013.05 1012.96 1013.53 1013.83 1014.59 1015.66 1016.94 1017.64 1017.61 1017.68 1019.07 1019.05 1019.62 1020.30 1020.15 1019.39 1017.04 1010.27 1007.99 1008.54 1009.38 1010.74 1011.46 1012.30 1013.26 1014.03
1017.06 1017.57 1016.71 1016.61 1017.53 1016.11 1014.90 1014.11 1013.38 1012.75 1012.76 1012.70 1012.33 1012.12 1012.27 1012.75 1013.19 1013.32 1012.90 1011.78 1011.55 1012.53 1014.03 1014.44 1015.16 1016.40 1016.04 1016.70 1016.86 1017.01 1017.05 1017.88 1018.77 1018.22 1017.55 1016.64 1007.53 1006.33 1007.18 1008.12 1009.31 1010.41 1011.38 1012.47 1013.31
1015.24 1015.81 1016.77 1016.62 1015.30 1014.77 1014.23 1013.06 1012.66 1012.10 1011.55 1011.45 1011.47 1011.15 1011.29 1011.60 1012.38 1011.59 1010.90 1010.35 1011.39 1012.01 1012.41 1013.66 1014.18 1015.41 1015.60 1016.64 1016.91 1016.50 1016.09 1015.81 1016.06 1016.30 1014.29 1014.76 1005.83 1005.98 1006.84 1007.64 1008.64 1009.66 1010.66 1011.73 1012.94
1014.12 1014.94 1015.47 1015.41 1013.35 1013.27 1013.64 1012.46 1011.65 1010.71 1010.95 1010.75 1010.27 1010.58 1010.81 1010.16 1010.15 1009.78 1010.37 1010.86 1011.37 1011.72 1011.81 1012.26 1012.70 1012.84 1012.33 1012.48 1013.39 1015.10 1014.23 1014.54 1014.68 1014.30 1011.15 1008.84 1006.52 1003.45 1006.32 1007.02 1008.28 1008.96 1009.97 1010.81 1011.68
1011.13 1011.05 1011.02 1012.19 1012.06 1012.21 1012.17 1010.32 1010.08 1010.35 1009.98 1009.88 1009.83 1008.45 1008.83 1009.36 1009.19 1008.94 1009.80 1011.02 1011.88 1011.95 1012.53 1012.94 1012.33 1012.56 1011.06 1011.07 1012.28 1012.51 1011.57 1012.66 1012.63 1009.69 1010.78 1004.69 1006.11 1003.44 1003.89 1004.44 1005.80 1006.65 1008.41 1009.81 1010.79
1008.42 1009.31 1009.94 1009.10 1009.46 1011.05 1011.04 1007.73 1008.42 1008.61 1009.03 1008.23 1007.85 1008.22 1008.34 1007.30 1006.99 1007.36 1009.17 1010.30 1011.15 1012.75 1012.81 1013.00 1012.39 1012.39 1011.37 1011.17 1011.81 1011.82 1008.50 1010.25 1009.18 1007.90 1007.91 1006.35 1003.41 1001.89 1001.85 1003.95 1004.82 1005.98 1007.46 1008.78 1010.03
1006.96 1007.19 1008.30 1007.39 1007.98 1008.61 1006.74 1005.91 1006.10 1008.82 1007.62 1006.98 1007.30 1007.70 1006.89 1005.34 1006.88 1006.79 1008.28 1008.90 1009.68 1010.52 1011.83 1012.45 1012.37 1012.58 1010.91 1011.07 1011.85 1010.07 1006.38 1007.27 1006.84 1004.36 1005.68 1004.87 1000.85 1000.79 1002.34 1003.61 1004.41 1005.45 1006.74 1007.77 1009.06
Wind_Speed
17 17 17 17 16 16 14 14 13 12 10 10 10 8 8 9 4 5 5 4 6 12 8 5 4 6 3 3 3 3 5 1 3 6 3 1 2 3 0 7 4 5 4 6 10
18 19 19 18 18 16 15 14 13 12 11 9 9 7 7 8 3 6 1 6 8 7 5 6 6 6 3 2 3 5 4 4 1 4 4 4 4 7 4 4 4 4 5 6 7
19 20 20 20 20 18 16 15 13 13 11 9 7 6 6 4 2 2 1 6 7 2 2 1 0 2 3 2 3 1 3 3 2 2 3 2 2 5 8 6 10 14 13 8 6
18 19 20 21 21 20 18 16 13 12 12 9 7 6 5 1 3 4 3 4 5 4 1 4 6 4 3 3 4 2 2 2 4 2 2 3 4 4 8 5 6 14 16 8 9
18 19 19 19 20 21 20 18 15 12 12 8 5 5 1 2 6 1 4 6 3 3 6 4 5 2 2 3 5 1 2 2 4 5 4 2 6 6 8 3 10 14 10 10 8
18 20 19 18 20 21 21 20 16 14 12 8 1 2 2 3 2 3 4 3 5 4 3 6 2 1 3 0 1 3 3 5 5 4 3 5 2 2 3 5 9 13 9 9 10
17 20 20 20 20 21 22 20 16 16 10 6 2 2 3 7 3 4 4 2 2 2 3 2 2 2 1 2 4 3 7 7 4 4 3 4 6 12 7 9 11 9 9 8 9
13 15 19 21 22 23 24 22 17 14 5 5 3 2 5 1 1 2 2 3 4 4 4 3 2 4 1 1 6 5 4 5 3 3 2 5 9 5 15 17 15 11 10 11 9
14 14 16 19 21 23 26 25 18 3 4 4 2 3 5 1 1 1 1 2 3 3 4 2 3 3 4 4 5 6 4 4 10 6 2 5 10 4 11 14 13 14 12 10 8
14 15 17 19 21 23 27 23 7 3 2 2 0 2 0 3 2 1 1 2 2 4 3 3 5 3 3 4 3 5 5 5 7 3 2 5 17 7 10 13 15 15 12 11 11
13 14 16 19 20 23 14 7 7 4 5 6 3 3 1 0 1 1 1 3 2 2 3 2 3 5 8 8 5 3 4 8 5 5 4 9 13 23 10 13 12 12 14 15 14
12 13 16 19 21 22 3 4 3 1 9 1 3 4 3 1 1 4 4 5 4 6 4 3 7 5 2 5 4 4 4 9 10 2 7 11 13 14 11 12 21 21 19 18 11
10 11 14 18 22 5 3 2 1 2 1 7 4 4 4 7 6 6 8 5 5 6 6 7 3 5 4 3 4 5 6 6 9 7 5 8 6 10 5 6 6 15 17 18 20
9 9 11 18 3 5 3 3 2 2 4 8 4 3 3 2 3 2 1 3 2 10 7 6 1 6 4 6 7 5 5 3 4 3 5 4 12 5 7 14 7 11 16 19 16
9 10 7 6 4 3 3 1 2 3 4 5 1 1 2 4 3 1 1 2 5 7 7 7 8 5 6 8 8 8 2 3 3 4 4 4 5 8 2 10 20 11 17 17 16
11 10 4 2 2 2 1 3 2 6 10 4 4 5 3 2 1 1 2 4 2 3 2 6 0 6 7 2 3 4 2 2 4 2 2 7 10 5 7 10 7 6 15 15 16
9 9 2 1 1 2 2 3 3 6 4 6 5 5 3 7 4 6 6 5 8 4 6 1 5 1 3 3 2 4 6 5 6 3 9 4 4 13 10 14 10 9 12 16 15
9 5 5 3 2 3 3 5 8 8 9 2 4 3 8 8 5 6 5 5 7 2 3 5 10 9 6 7 7 6 8 8 8 5 8 0 12 9 8 7 7 8 12 13 13
4 2 3 4 6 3 5 7 11 9 7 8 3 4 6 5 5 6 9 7 10 14 11 7 9 2 0 1 2 5 5 0 2 2 3 7 9 8 5 9 4 7 11 15 15
2 2 5 6 9 4 3 18 9 9 6 3 12 11 9 7 7 7 8 5 6 14 1 5 7 1 2 2 4 4 5 4 3 3 9 8 12 17 11 12 6 8 13 13 13
3 3 3 13 5 4 12 10 9 9 4 9 8 6 9 8 9 7 8 4 6 4 3 5 4 3 4 9 11 3 3 1 3 6 7 5 15 8 8 10 12 16 14 14 15
4 5 2 10 9 5 15 9 9 7 16 12 6 10 10 11 8 8 13 12 11 10 11 7 5 6 15 1 2 3 10 14 8 8 4 3 31 10 9 10 11 13 14 11 12
5 5 1 3 11 14 4 6 14 10 15 14 13 11 8 10 8 12 16 7 11 12 14 10 5 2 6 2 3 6 7 7 1 2 18 11 24 6 4 1 9 10 11 12 13
5 4 5 7 10 11 13 13 14 9 20 7 7 7 5 12 13 10 6 5 5 6 3 14 8 10 19 10 8 7 11 12 16 10 23 30 34 36 25 18 9 10 12 15 16
7 11 12 10 19 23 9 7 23 15 11 18 15 25 18 14 18 23 17 1 3 5 4 9 17 8 23 19 6 7 16 15 19 28 20 40 32 32 30 27 16 15 14 15 17
9 8 3 7 6 26 25 36 30 18 14 14 24 12 24 30 25 19 21 8 15 2 9 4 9 6 18 7 7 16 28 19 26 30 28 31 42 39 36 25 23 11 15 17 15
7 3 5 10 17 16 30 37 33 20 19 21 19 19 24 31 26 23 5 7 11 13 12 10 7 6 24 4 5 20 14 28 31 32 20 30 41 38 25 17 9 8 15 18 18
Wind_Direction
357 356 354 352 351 348 345 342 342 341 343 342 343 343 339 339 330 42 38 296 307 317 324 295 35 356 49 66 59 120 61 144 169 150 193 31 129 58 47 98 47 330 150 157 143
354 352 352 350 348 345 341 339 335 339 338 341 335 336 339 340 79 59 238 314 311 323 19 36 355 1 27 36 27 79 96 218 223 172 176 165 174 169 129 108 42 44 47 97 123
350 349 347 348 345 343 341 339 332 330 331 334 330 332 335 330 54 201 264 328 327 295 181 180 266 41 48 9 7 177 151 187 245 180 178 173 169 173 128 230 196 181 169 153 145
347 344 344 344 342 340 339 338 332 329 327 327 332 338 332 39 234 184 338 347 358 136 53 10 30 37 61 7 333 360 357 210 187 231 138 200 153 198 190 228 200 165 159 146 157
341 339 339 339 338 336 334 334 334 329 321 318 332 339 40 41 252 61 13 6 37 72 59 28 49 34 68 309 340 56 313 311 189 189 226 209 227 211 233 293 134 132 148 156 157
338 335 333 334 334 333 330 331 332 326 320 298 257 323 96 241 94 32 15 62 44 48 51 42 90 135 99 57 67 315 284 276 254 222 220 202 251 170 170 123 122 147 161 166 168
334 334 330 330 331 328 325 325 327 321 314 268 204 138 115 236 359 36 47 75 40 63 91 85 118 89 127 6 342 338 334 328 231 190 230 149 285 234 142 151 160 172 174 179 190
322 331 326 328 329 326 322 318 320 319 316 226 202 125 226 17 298 339 56 68 65 51 88 109 87 102 64 162 17 21 43 349 301 144 316 143 262 265 162 165 187 187 187 187 191
317 319 323 326 326 324 320 313 309 318 119 172 258 150 262 353 184 214 74 138 92 71 51 85 74 90 27 74 19 14 284 260 313 199 120 184 271 283 170 188 190 198 196 190 179
315 316 322 327 326 324 320 305 289 92 145 191 335 26 137 222 155 125 73 104 125 110 71 65 49 59 27 78 257 262 291 263 240 312 190 260 270 231 195 204 207 199 189 197 192
309 320 323 325 326 325 336 351 17 348 24 208 177 235 193 113 28 189 125 103 107 90 193 30 75 234 230 193 156 180 223 246 248 251 219 235 248 271 207 219 216 202 197 201 197
312 323 322 323 322 323 326 62 48 177 305 212 224 277 223 170 252 219 130 162 156 194 126 33 229 214 134 158 160 193 255 265 285 259 191 264 249 272 243 225 212 205 199 199 190
308 321 319 321 318 1 27 67 251 321 246 291 208 191 200 143 212 211 153 168 170 168 187 177 219 124 155 196 191 212 196 240 239 338 280 315 263 238 301 257 231 219 207 201 192
294 306 315 328 37 323 16 350 31 349 44 272 243 276 108 150 267 122 188 152 185 198 167 231 236 169 200 239 153 264 213 253 290 349 246 45 290 263 255 270 225 211 198 198 183
286 292 314 71 280 344 292 14 26 37 318 261 227 314 102 171 137 260 2 70 183 181 130 244 164 183 210 218 161 224 128 182 205 236 332 220 251 261 53 268 261 210 210 201 188
277 279 332 123 117 252 351 9 26 53 248 256 143 175 152 212 220 106 102 51 45 121 331 247 313 176 215 110 167 117 34 70 56 87 285 227 190 237 191 218 257 207 208 188 186
256 260 180 107 209 132 74 32 35 176 274 226 214 169 198 197 220 180 168 179 178 145 226 251 218 230 171 147 91 101 71 322 323 340 237 134 244 251 252 245 236 222 197 197 182
233 236 212 210 127 124 69 60 213 219 226 65 129 116 188 161 231 188 166 224 236 108 118 212 276 174 183 202 179 168 163 165 247 235 286 236 247 248 232 287 288 261 201 189 179
178 157 209 218 155 73 86 210 197 187 209 170 92 185 229 230 194 157 205 205 205 171 186 173 266 123 172 92 121 165 180 251 26 110 341 234 286 288 271 281 284 209 173 191 188
165 235 209 170 143 97 148 232 212 194 158 148 208 184 202 209 176 190 180 195 235 196 113 212 289 150 120 114 29 143 159 90 10 269 264 262 273 244 246 261 175 217 212 200 191
164 245 259 137 127 179 219 219 217 236 173 182 211 242 212 190 200 207 217 244 209 143 104 136 162 193 121 207 170 120 220 227 153 173 204 307 266 214 203 216 196 214 210 198 195
164 233 211 147 194 211 223 188 189 212 225 246 214 215 201 192 210 226 214 218 161 155 167 199 160 211 215 357 357 248 198 183 200 235 243 141 261 173 194 228 182 212 204 196 192
187 193 230 203 219 218 255 263 221 187 194 208 224 197 190 204 238 198 228 188 160 159 173 177 217 290 318 33 354 221 206 218 360 102 231 213 262 71 15 197 207 213 196 196 191
150 204 177 215 231 228 223 234 228 214 236 219 225 170 168 225 221 255 228 216 195 215 169 158 195 183 233 221 128 186 214 206 212 237 257 240 264 267 265 257 229 217 196 196 191
177 216 177 192 223 222 199 235 231 225 214 208 243 223 212 237 226 237 244 331 211 217 183 177 240 196 250 256 179 228 232 192 207 230 232 265 260 268 270 269 255 235 200 196 193
189 209 229 221 157 213 221 237 237 232 188 215 230 208 223 231 218 236 224 200 224 67 169 181 251 169 258 220 205 263 255 240 232 248 248 256 266 266 268 284 274 224 195 196 196
213 188 213 216 217 201 218 232 236 230 248 235 226 227 235 231 232 245 213 238 213 189 183 163 169 145 251 200 78 268 249 237 247 244 233 246 249 264 271 256 234 201 196 195 186